Weather History for KFOA - November, 2012

Change the Weather History Date:

Thursday, November 22, 2012

  Actual Average (KEVV) Record (KEVV)
Temperature  
Mean Temperature 50 °F 44 °F  
Max Temperature 64 °F 53 °F 78 °F (1900)
Min Temperature 35 °F 34 °F 10 °F (1964)
Degree Days  
Heating Degree Days 16 21  
Month to date heating degree days 372  
Since 1 July heating degree days 675  
Cooling Degree Days 0 0  
Month to date cooling degree days 0  
Year to date cooling degree days 1395  
Moisture  
Dew Point 45 °F    
Average Humidity 81    
Maximum Humidity 100    
Minimum Humidity 50    
Precipitation  
Precipitation 0.09 in 0.15 in 1.53 in (1899)
Month to date precipitation 3.13  
Year to date precipitation 40.35  
Snow  
Snow 0.00 in 0.00 in T in (1975)
Month to date snowfall 0.0  
Since 1 July snowfall 0.2  
Since 1 September snowfall 0.2  
Snow Depth -    
Sea Level Pressure  
Sea Level Pressure 30.09 in    
Wind  
Wind Speed 6 mph (SSW)    
Max Wind Speed 18 mph    
Max Gust Speed 25 mph    
Visibility 6 miles    
Events Fog , Rain , Thunderstorm    
T = Trace of Precipitation, MM = Missing Value Source: NWS Daily Summary

Daily Weather History Graph

Daily Weather History Graph

Search for Another Location

Airport or City:

Trip Planner

Search our weather history database for the weather conditions in past years. The results will help you decide how hot, cold, wet, or windy it might be!

Date:

Astronomy

Nov. 22, 2012 Rise Set
Actual Time 6:44 AM CST 4:35 PM CST
Civil Twilight 6:15 AM CST 5:04 PM CST
Nautical Twilight 5:42 AM CST 5:37 PM CST
Astronomical Twilight 5:10 AM CST 6:08 PM CST
Moon 1:18 PM CST (11/22) 1:07 AM CST (11/22)
Length of Visible Light 10h 49m
Length of Day
9h 51m
Waxing Gibbous, 71% of the Moon is Illuminated
Nov 22
Waxing Gibbous
Nov 28
Full
Dec 6
Last Quarter
Dec 13
New
Dec 19
First Quarter

Hourly Weather History & Observations

Time (CST) Temp. Windchill Dew Point Humidity Pressure Visibility Wind Dir Wind Speed Gust Speed Precip Events Conditions
12:15 AM 38.7 °F - 38.7 °F 100% 30.19 in 0.2 mi Calm Calm - N/A Rain Light Rain
12:35 AM 39.2 °F - 39.2 °F 100% 30.19 in 0.5 mi Calm Calm - N/A Fog Fog
12:55 AM 38.7 °F - 38.7 °F 100% 30.19 in 0.2 mi Calm Calm - N/A   Overcast
1:15 AM 36.7 °F - 36.7 °F 100% 30.19 in 0.2 mi Calm Calm - N/A Rain Light Rain
1:35 AM 37.9 °F - 37.9 °F 100% 30.19 in 0.2 mi Calm Calm - N/A Rain Rain
1:55 AM 37.4 °F - 37.4 °F 100% 30.19 in 0.5 mi Calm Calm - N/A Fog Fog
2:15 AM 38.8 °F - 38.8 °F 100% 30.19 in 0.2 mi Calm Calm - N/A Rain Rain
2:35 AM 37.0 °F 34.5 °F 37.0 °F 100% 30.18 in 0.2 mi SSE 3.5 mph - N/A   Drizzle
2:55 AM 36.3 °F 32.5 °F 36.3 °F 100% 30.18 in 0.2 mi SSE 4.6 mph - N/A Rain Light Rain
3:15 AM 35.6 °F - 35.6 °F 100% 30.18 in 0.2 mi Calm Calm - N/A Fog Fog
3:35 AM 38.3 °F - 38.3 °F 100% 30.18 in 0.2 mi Calm Calm - N/A Fog Fog
3:55 AM 38.8 °F - 38.8 °F 100% 30.17 in 0.2 mi Calm Calm - N/A   Drizzle
4:15 AM 39.2 °F - 39.2 °F 100% 30.17 in 0.2 mi Calm Calm - N/A   Drizzle
4:35 AM 37.4 °F - 37.4 °F 100% 30.17 in 0.2 mi Calm Calm - N/A   Heavy Drizzle
4:55 AM 38.7 °F - 38.7 °F 100% 30.17 in 0.2 mi Calm Calm - N/A   Heavy Drizzle
5:15 AM 39.0 °F - 39.0 °F 100% 30.17 in 0.2 mi Calm Calm - N/A   Drizzle
5:35 AM 41.0 °F 39.0 °F 41.0 °F 100% 30.16 in 1.2 mi SSE 3.5 mph - N/A   Scattered Clouds
5:55 AM 38.8 °F 33.8 °F 38.8 °F 100% 30.16 in 1.2 mi SSE 6.9 mph - N/A Rain Light Rain
6:15 AM 41.2 °F 37.3 °F 41.2 °F 100% 30.16 in 2.5 mi South 5.8 mph - N/A   Clear
6:35 AM 41.9 °F 37.5 °F 41.9 °F 100% 30.16 in 2.5 mi South 6.9 mph - N/A   Clear
6:55 AM 41.7 °F 38.0 °F 41.7 °F 100% 30.16 in 1.8 mi SSE 5.8 mph - N/A   Mist
7:15 AM 41.9 °F 37.5 °F 41.9 °F 100% 30.16 in 1.5 mi SSE 6.9 mph - N/A   Mist
7:35 AM 43.7 °F 39.7 °F 43.7 °F 100% 30.16 in 1.8 mi SSE 6.9 mph - N/A   Mist
7:55 AM 45.1 °F 41.4 °F 45.1 °F 100% 30.16 in 2.0 mi South 6.9 mph - N/A   Clear
8:15 AM 47.1 °F - 46.9 °F 99% 30.16 in 3.0 mi South 8.1 mph - N/A   Clear
8:35 AM 48.7 °F - 48.6 °F 99% 30.16 in 4.0 mi South 9.2 mph - N/A   Clear
8:55 AM 50.2 °F - 50.0 °F 99% 30.15 in 4.0 mi South 11.5 mph - N/A   Clear
9:15 AM 51.8 °F - 50.7 °F 96% 30.14 in 5.0 mi South 9.2 mph - N/A   Clear
9:35 AM 53.2 °F - 48.4 °F 84% 30.14 in 5.0 mi South 10.4 mph - N/A   Haze
9:55 AM 55.4 °F - 48.4 °F 77% 30.14 in 5.0 mi South 13.8 mph - N/A   Haze
10:15 AM 57.4 °F - 48.9 °F 73% 30.13 in 5.0 mi South 15.0 mph 19.6 mph N/A   Haze
10:35 AM 58.8 °F - 49.3 °F 71% 30.12 in 7.0 mi South 16.1 mph 20.7 mph N/A   Clear
10:55 AM 59.4 °F - 48.7 °F 68% 30.12 in 7.0 mi South 17.3 mph 21.9 mph N/A   Clear
11:15 AM 59.2 °F - 48.6 °F 68% 30.11 in 7.0 mi SSW 12.7 mph 16.1 mph N/A   Clear
11:35 AM 60.1 °F - 49.1 °F 67% 30.10 in 7.0 mi South 16.1 mph - N/A   Clear
11:55 AM 61.7 °F - 48.9 °F 63% 30.10 in 7.0 mi SSW 15.0 mph - N/A   Clear
12:15 PM 63.3 °F - 48.9 °F 59% 30.08 in 10.0 mi South 15.0 mph - N/A   Clear
12:35 PM 63.1 °F - 49.1 °F 60% 30.07 in 10.0 mi South 18.4 mph - N/A   Clear
12:55 PM 63.5 °F - 48.0 °F 57% 30.06 in 10.0 mi South 13.8 mph 21.9 mph N/A   Clear
1:15 PM 63.1 °F - 47.8 °F 57% 30.06 in 10.0 mi South 15.0 mph - N/A   Clear
1:35 PM 64.4 °F - 46.8 °F 53% 30.04 in 10.0 mi South 13.8 mph 25.3 mph N/A   Clear
1:55 PM 64.4 °F - 45.3 °F 50% 30.04 in 10.0 mi SSW 18.4 mph 23.0 mph N/A   Clear
2:15 PM 63.9 °F - 46.8 °F 54% 30.03 in 10.0 mi South 16.1 mph - N/A   Clear
2:35 PM 63.5 °F - 45.9 °F 53% 30.03 in 10.0 mi SSW 15.0 mph - N/A   Clear
2:55 PM 63.3 °F - 46.2 °F 54% 30.02 in 10.0 mi South 12.7 mph 19.6 mph N/A   Clear
3:15 PM 63.5 °F - 45.9 °F 53% 30.02 in 10.0 mi South 13.8 mph - N/A   Clear
3:35 PM 62.6 °F - 46.4 °F 55% 30.02 in 10.0 mi South 11.5 mph - N/A   Clear
3:55 PM 61.7 °F - 45.9 °F 56% 30.02 in 10.0 mi South 11.5 mph - N/A   Clear
4:15 PM 60.6 °F - 46.0 °F 59% 30.02 in 10.0 mi South 10.4 mph - N/A   Clear
4:35 PM 60.6 °F - 45.3 °F 57% 30.02 in 10.0 mi South 11.5 mph - N/A   Clear
4:55 PM 59.5 °F - 45.5 °F 60% 30.02 in 10.0 mi South 8.1 mph - N/A   Clear
5:15 PM 57.6 °F - 45.5 °F 64% 30.01 in 10.0 mi South 6.9 mph - N/A   Clear
5:35 PM 57.7 °F - 45.9 °F 65% 30.01 in 10.0 mi South 9.2 mph - N/A   Clear
5:55 PM 58.1 °F - 45.7 °F 63% 30.00 in 10.0 mi South 12.7 mph - N/A   Clear
6:15 PM 59.0 °F - 46.4 °F 63% 30.00 in 10.0 mi SSW 16.1 mph 21.9 mph N/A   Clear
6:35 PM 59.5 °F - 45.9 °F 61% 30.00 in 10.0 mi South 16.1 mph - N/A   Scattered Clouds
6:55 PM 59.9 °F - 46.2 °F 61% 30.00 in 10.0 mi SSW 15.0 mph 20.7 mph N/A Thunderstorm Mostly Cloudy
7:15 PM 59.4 °F - 46.6 °F 63% 30.00 in 10.0 mi SSW 16.1 mph - N/A   Mostly Cloudy
7:35 PM 59.0 °F - 46.4 °F 63% 30.00 in 10.0 mi SSW 13.8 mph - N/A   Mostly Cloudy
7:55 PM 59.5 °F - 46.9 °F 63% 29.99 in 10.0 mi SSW 17.3 mph 23.0 mph N/A Thunderstorm Overcast
8:15 PM 59.7 °F - 47.5 °F 64% 30.01 in 10.0 mi SW 16.1 mph - N/A Thunderstorm Thunderstorm
8:35 PM 58.8 °F - 49.1 °F 70% 30.02 in 10.0 mi SW 17.3 mph 20.7 mph N/A Rain Light Rain
8:55 PM 56.7 °F - 51.8 °F 84% 30.02 in 7.0 mi SW 11.5 mph 19.6 mph 0.01 in Rain Rain
9:15 PM 55.6 °F - 52.7 °F 90% 30.03 in 7.0 mi SW 12.7 mph - 0.02 in Rain Light Rain
9:35 PM 56.7 °F - 53.1 °F 88% 30.03 in 10.0 mi WSW 13.8 mph - 0.02 in   Overcast
9:55 PM 56.5 °F - 52.9 °F 88% 30.03 in 10.0 mi WSW 10.4 mph - 0.03 in Rain Rain
10:15 PM 56.3 °F - 53.1 °F 89% 30.03 in 10.0 mi WSW 10.4 mph - N/A Rain Light Rain
10:35 PM 55.6 °F - 53.1 °F 91% 30.02 in 7.0 mi SW 11.5 mph - 0.02 in Rain Light Rain
10:55 PM 55.6 °F - 53.6 °F 93% 30.02 in 7.0 mi SW 13.8 mph 18.4 mph 0.04 in Rain Light Rain
11:15 PM 55.6 °F - 53.8 °F 94% 30.03 in 7.0 mi SW 11.5 mph - 0.01 in Rain Light Rain
11:35 PM 55.6 °F - 53.8 °F 94% 30.03 in 7.0 mi SW 11.5 mph - 0.01 in   Light Drizzle
11:55 PM 56.3 °F - 54.5 °F 94% 30.03 in 7.0 mi WSW 11.5 mph 21.9 mph 0.01 in Rain Light Rain